Torna al catalogo

SL-12 R/B(2)

AttivoGEO
NORAD 21925·ROCKET BODY·🇷🇺 Russia

Lanciato Apr 2, 1992 da Baikonur Cosmodrome

Loading…

TLE

AggiornatoSource: Space-Track

Epoca: Aug 28, 2026, 04:09 UTC

1 21925U 92017D   26240.17353227 -.00000199  00000-0  00000+0 0  9991
2 21925  13.0096 340.0390 0020403  72.0444 301.2118  1.01088279126044

Traccia SL-12 R/B(2) in tempo reale con AllMySat

Download on the App Store